Flag for India Weather past 2 weeks in Firozpur, Punjab, India

Now
97 °F

Scattered clouds.


Feels Like: 107 °F
Forecast: 74 / 95 °F
Wind: 6 mph from Southwest

Location: Lahore Airport

Current Time: Sep 22, 2014 at 2:00:54 PM

Latest Report: Sep 22, 2014 at 1:29 PM


Visibility: 3 mi

Pressure: 29.71 "Hg

Humidity: 47%

Dew point: 73 °F

Location of FirozpurLocation

Historic Weather in Firozpur — Graph

°F

Firozpur temperature yesterday

Maximum temperature yesterday: 95 °F (at 4:25 PM)
Minimum temperature yesterday: 75 °F (at 3:25 AM)
Average temperature yesterday: 84 °F

Past Weeks' High & Low Weather Summary

 TemperatureHumidityPressure
High97 °F (Sep 20, 2:29 PM)100% (Sep 7, 12:55 PM)29.86 "Hg (Sep 7, 12:55 PM)
Low72 °F (Sep 15, 5:30 AM)44% (Sep 21, 4:25 PM)29.56 "Hg (Sep 14, 5:30 PM)
Average85 °F72%29.68 "Hg
* Reported Sep 7 12:55 PM — Sep 22 12:59 PM, Firozpur, Weather by CustomWeather, © 2014

Note: Actual official high and low records may vary slightly from our data, if they occured in-between our weather recording intervals... More about our weather records

Advertising

Firozpur weather history for previous 24 hours

 ConditionsComfort  
Time TempWeatherWind HumidityBarometerVisibility
12:59 PM
Sep 22
93 °FScattered clouds.5 mph53%29.71 "Hg3 mi
12:29 PM93 °FScattered clouds.5 mph53%29.71 "Hg3 mi
11:59 AM91 °FPassing clouds.No wind56%29.74 "Hg3 mi
11:29 AM90 °FPassing clouds.No wind59%29.74 "Hg3 mi
10:59 AM88 °FClear.No wind62%29.74 "Hg3 mi
10:29 AM88 °FClear.No wind62%29.74 "Hg3 mi
9:55 AM86 °FClear.3 mph70%29.74 "Hg3 mi
9:25 AM84 °FClear.3 mph74%29.74 "Hg2 mi
9:00 AM82 °FClear.3 mph79%29.74 "Hg2 mi
8:30 AM81 °FClear.3 mph79%29.74 "Hg2 mi
8:00 AM79 °FClear.No wind84%29.74 "Hg2 mi
7:25 AM79 °FClear.No wind84%29.71 "Hg2 mi
7:00 AM77 °FClear.No wind83%29.71 "Hg2 mi
6:30 AM77 °FClear.5 mph83%29.71 "Hg2 mi
5:30 AM77 °FClear.5 mph83%29.68 "Hg2 mi
5:00 AM77 °FClear.No wind83%29.68 "Hg2 mi
4:30 AM77 °FClear.5 mph83%29.68 "Hg2 mi
4:00 AM79 °FClear.No wind84%29.68 "Hg2 mi
3:30 AM79 °FClear.3 mph84%29.68 "Hg2 mi
2:55 AM79 °FClear.5 mph84%29.68 "Hg2 mi
2:25 AM79 °FClear.3 mph84%29.68 "Hg2 mi
1:55 AM81 °FClear.5 mph84%29.68 "Hg2 mi
1:25 AM81 °FClear.5 mph84%29.71 "Hg2 mi
12:55 AM81 °FClear.3 mph79%29.71 "Hg2 mi
12:25 AM81 °FClear.5 mph79%29.71 "Hg2 mi
11:55 PM
Sep 21
82 °FClear.5 mph79%29.71 "Hg2 mi
11:25 PM82 °FClear.6 mph79%29.71 "Hg2 mi
10:55 PM82 °FClear.3 mph79%29.68 "Hg2 mi
10:30 PM82 °FClear.6 mph79%29.68 "Hg2 mi
10:00 PM84 °FClear.3 mph74%29.68 "Hg3 mi
9:25 PM84 °FClear.5 mph74%29.68 "Hg3 mi
8:55 PM86 °FClear.No wind70%29.68 "Hg3 mi
8:25 PM86 °FClear.No wind70%29.68 "Hg3 mi
7:55 PM86 °FClear.5 mph66%29.68 "Hg3 mi
7:25 PM88 °FClear.3 mph62%29.65 "Hg3 mi
6:55 PM91 °FClear.5 mph56%29.65 "Hg3 mi
6:25 PM91 °FClear.3 mph56%29.62 "Hg4 mi
5:55 PM93 °FClear.3 mph49%29.62 "Hg4 mi
5:25 PM93 °FClear.3 mph49%29.62 "Hg4 mi
4:55 PM95 °FClear.5 mph44%29.65 "Hg5 mi
4:25 PM95 °FClear.3 mph44%29.65 "Hg5 mi
3:55 PM93 °FClear.6 mph49%29.65 "Hg5 mi
3:25 PM93 °FClear.3 mph49%29.65 "Hg5 mi
2:55 PM93 °FClear.5 mph49%29.65 "Hg5 mi
2:25 PM93 °FClear.5 mph49%29.65 "Hg5 mi
Weather by CustomWeather, © 2014

See weather overviewHow to use our weather pages